This is the latest recevied weather packets stored in our database for station/object KI2K. If no packets are shown the sender has not sent any weather packets the latest 10 day(s).
| Time | Temp. | Humidity | Pressure | Rain* | Wind** | Luminosity | Snow |
|---|---|---|---|---|---|---|---|
| 1777812340 | 8.89° C | 64% | 1018.1 hPa | 0 mm | - | 192 W/m² | - |
| 1777812039 | 8.89° C | 65% | 1018.4 hPa | 0 mm | - | 171 W/m² | - |
| 1777811737 | 8.33° C | 66% | 1018.4 hPa | 0 mm | - | 169 W/m² | - |
| 1777811433 | 7.78° C | 67% | 1018.4 hPa | 0 mm | - | 161 W/m² | - |
| 1777811130 | 7.78° C | 66% | 1018.1 hPa | 0 mm | - | 144 W/m² | - |
| 1777810827 | 7.78° C | 66% | 1018.1 hPa | 0 mm | - | 134 W/m² | - |
| 1777810523 | 7.22° C | 67% | 1017.9 hPa | 0 mm | - | 125 W/m² | - |
| 1777810220 | 7.22° C | 69% | 1018.2 hPa | 0 mm | - | 108 W/m² | - |
| 1777809916 | 6.67° C | 69% | 1018 hPa | 0 mm | - | 95 W/m² | - |
| 1777809615 | 6.67° C | 71% | 1017.9 hPa | 0 mm | - | 63 W/m² | - |
| 1777809312 | 6.11° C | 72% | 1018 hPa | 0 mm | - | 57 W/m² | - |
| 1777809009 | 6.11° C | 73% | 1017.9 hPa | 0 mm | - | 51 W/m² | - |
| 1777808707 | 5.56° C | 74% | 1017.9 hPa | 0 mm | - | 46 W/m² | - |
| 1777808403 | 5° C | 74% | 1017.8 hPa | 0 mm | - | 41 W/m² | - |
| 1777808101 | 5° C | 75% | 1017.9 hPa | 0 mm | - | 35 W/m² | - |
| 1777807799 | 4.44° C | 75% | 1017.9 hPa | 0 mm | - | 31 W/m² | - |
| 1777807497 | 4.44° C | 76% | 1017.6 hPa | 0 mm | - | 27 W/m² | - |
| 1777807193 | 4.44° C | 77% | 1017.6 hPa | 0 mm | - | 20 W/m² | - |
| 1777806890 | 3.89° C | 77% | 1017.5 hPa | 0 mm | - | 16 W/m² | - |
| 1777806586 | 3.89° C | 77% | 1017.6 hPa | 0 mm | - | 13 W/m² | - |
| 1777806282 | 3.89° C | 78% | 1017.7 hPa | 0 mm | - | 10 W/m² | - |
| 1777805979 | 3.89° C | 77% | 1017.8 hPa | 0 mm | - | 7 W/m² | - |
| 1777805675 | 3.89° C | 78% | 1017.8 hPa | 0 mm | - | 4 W/m² | - |
| 1777805373 | 3.89° C | 78% | 1017.6 hPa | 0 mm | - | 2 W/m² | - |
| 1777805072 | 3.89° C | 78% | 1017.3 hPa | 0 mm | - | 0 W/m² | - |
* Rain latest hour (hover to see other rain measurements)
** Current wind speed in m/s (hover to see current wind gust speed)